Weather in Staryye Aybesi

Russia / Chuvash Republic     54°57′02″N   47°02′40″E
temp.,
°C
wind,
m/s
gust,
m/s
humid.,
%
clouds,
%
prec.,
mm/h
press.,
hPa
HPBL,
m
16 april, fri
fri1600:00+11e247494 0.0 101864
03:00+10ne3779100 0.0 1019140
06:00+9ene4118749 0.0 1020304
09:00+12ene597860 0.0 1021495
12:00+16ene575841 0.0 1021857
15:00+16ene575454 0.0 10221031
18:00+13ene596740 0.0 1022711
21:00+9ene512738 0.0 1024530
17 april, sat
sat1700:00+7ene412755 0.0 1024423
03:00+5ene3108058 0.0 1025324
06:00+5ene41176100 0.0 1026378
09:00+9ene510618 0.0 1025546
12:00+13ene68485 0.0 1025964
15:00+14ene57435 0.0 10241185
18:00+11ene48465 0.0 1024505
21:00+8ene412504 0.0 1024459
18 april, sun
sun1800:00+6ene412645 0.0 1024372
03:00+4ene312705 0.0 1025342
06:00+4ene412676 0.0 1024432
09:00+9e5951100 0.0 1024752
12:00+12e5740100 0.0 10231116
15:00+12e5738100 0.0 10231371
18:00+10e4848100 0.0 1024723
21:00+8e41258100 0.0 1024546
19 april, mon
mon1900:00+6ene51274100 0.0 1025550
03:00+4ene4988100 1.8 1026445
06:00+4ene5118299 0.8 1027581
09:00+5ene6959100 0.8 1028752
12:00+7e695099 0.0 10281161
15:00+8e6950100 0.0 10271446
18:00+7e61059100 0.0 10281206
21:00+6e51065100 0.0 1028967
20 april, tue
tue2000:00+4ese5117142 0.0 1028926
03:00+3ese5137395 0.0 1028906
06:00+4ese51168100 0.0 1028855
09:00+4ese6126260 0.0 1028809
12:00+4ese71265100 0.0 1028813
15:00+4ese61559100 0.0 10271000
18:00+7ese61458100 0.0 10251019
21:00+7se61554100 0.0 1024931